Content
SEND FEEDBACK

Daily
Averages
Monthly
Summary
United States of America

TAMUNING, GUAM


Home > North America > United States > Guam
Elevation: 76 meters     Latitude: 13 29N     Longitude: 144 47E

WEATHER
 
SELECT A DAY
Number of Records: 354,808;   Date Range: 1/1/95 - 11/27/14
 
SHARE

PRINT THIS DATA

[ ← Previous Day ]
WEATHER ALMANAC - 28 APRIL, 2013
[ Next Day → ]
[ °F ]   °C
Weather ElementAverageHighLow
Temperature27.2 °C30.1 °C (11:55 am)25 °C (10:36 pm)
Dewpoint23.7 °C24 °C (12:24 am)23 °C (1:47 am)
Humidity81.7 %90 % (10:55 pm)68 % (12:55 pm)
Barometer1011.9 hPa1012.9 hPa (8:30 am)1010.2 hPa (2:55 pm)
Wind Speed19.6 km/h27.8 km/h (10:26 pm)
Wind Gust35.2 km/h (11:26 am)
Weather ElementAverage
Visibility15.8 km
Wind DirectionENE (66.3 °)

Weather ElementTotal
Precipitation0.25 mm
Cooling Degree Days9.2 (Base 18.3)
Growing Degree Days17.6 (Base 10)
Averaged from 71 records on 28 April, 2013
WEATHER CONDITIONS BREAKOUT
WIND DIRECTION BREAKOUT
WEATHER BY HOUR - 28 APRIL, 2013
[ °F ]   °C
Local TimeTemperatureDewpointHumidityBarometerVisibilityWind DirectionWind SpeedGust SpeedPrecipitationEventsConditions
12:24 AM26 °C24 °C89 %1011.5 hPa16.1 kmEast (90°)14.8 km/hMostly Cloudy
12:25 AM26 °C24 °C89 %1011.5 hPa16.1 kmEast (80°)16.7 km/hMostly Cloudy
12:27 AM26 °C24 °C89 %1011.5 hPa16.1 kmEast (80°)16.7 km/hScattered Clouds
12:55 AM26.3 °C23.8 °C86 %1011.5 hPa16.1 kmEast (90°)14.8 km/hScattered Clouds
1:24 AM26 °C24 °C89 %1011.5 hPa16.1 kmEast (80°)13 km/hMostly Cloudy
1:47 AM26 °C23 °C83 %1011.2 hPa16.1 kmEast (80°)13 km/hScattered Clouds
1:49 AM26 °C23 °C83 %1011.2 hPa16.1 kmEast (80°)13 km/hMostly Cloudy
1:52 AM26 °C24 °C89 %1011.2 hPa16.1 kmENE (70°)18.5 km/hMostly Cloudy
1:55 AM26.2 °C23.5 °C85 %1011.2 hPa16.1 kmENE (70°)20.4 km/hMostly Cloudy
2:07 AM26 °C23 °C83 %1011.2 hPa16.1 kmEast (80°)18.5 km/hScattered Clouds
2:55 AM25.7 °C23.1 °C85 %1010.8 hPa16.1 kmENE (70°)20.4 km/hPartly Cloudy
3:39 AM26 °C23 °C83 %1010.8 hPa16.1 kmENE (60°)14.8 km/hMostly Cloudy
3:41 AM26 °C23 °C83 %1010.8 hPa16.1 kmENE (70°)18.5 km/hScattered Clouds
3:52 AM26 °C23 °C83 %1010.8 hPa16.1 kmENE (70°)14.8 km/hMostly Cloudy
3:53 AM26 °C23 °C83 %1010.8 hPa16.1 kmENE (70°)16.7 km/hMostly Cloudy
3:55 AM25.8 °C23.3 °C86 %1010.8 hPa16.1 kmENE (70°)18.5 km/hMostly Cloudy
4:07 AM26 °C23 °C83 %1010.8 hPa16.1 kmENE (60°)16.7 km/hScattered Clouds
4:55 AM25.5 °C23.4 °C88 %1011.2 hPa16.1 kmENE (70°)16.7 km/hClear
5:55 AM25.6 °C23.5 °C88 %1011.5 hPa16.1 kmENE (70°)16.7 km/hPartly Cloudy
6:02 AM26 °C24 °C89 %1011.5 hPa16.1 kmENE (70°)16.7 km/hMostly Cloudy
6:04 AM26 °C24 °C89 %1011.5 hPa16.1 kmENE (70°)18.5 km/hScattered Clouds
6:17 AM26 °C24 °C89 %1011.9 hPa16.1 kmENE (70°)16.7 km/hMostly Cloudy
6:23 AM26 °C24 °C89 %1011.9 hPa16.1 kmENE (70°)16.7 km/hScattered Clouds
6:48 AM26 °C24 °C89 %1012.2 hPa16.1 kmENE (70°)14.8 km/hLight Drizzle
6:55 AM26.8 °C23.8 °C84 %1012.2 hPa16.1 kmENE (70°)18.5 km/h0 mmLight Drizzle
6:57 AM27 °C24 °C84 %1012.2 hPa16.1 kmENE (70°)18.5 km/hScattered Clouds
7:55 AM28.2 °C23.9 °C77 %1012.5 hPa16.1 kmNE (50°)18.5 km/h0 mmPartly Cloudy
8:30 AM28 °C24 °C79 %1012.9 hPa16.1 kmNE (50°)25.9 km/hMostly Cloudy
8:38 AM28 °C24 °C79 %1012.9 hPa16.1 kmENE (60°)18.5 km/hMostly Cloudy
8:41 AM28 °C24 °C79 %1012.9 hPa16.1 kmNE (50°)18.5 km/hLight Drizzle
8:44 AM28 °C24 °C79 %1012.9 hPa16.1 kmENE (70°)20.4 km/hLight Drizzle
8:49 AM29 °C23 °C70 %1012.9 hPa16.1 kmENE (70°)20.4 km/hLight Drizzle
8:52 AM29 °C24 °C74 %1012.9 hPa16.1 kmNE (50°)22.2 km/hScattered Clouds
8:55 AM29 °C23.7 °C73 %1012.9 hPa16.1 kmNE (50°)24.1 km/h0 mmScattered Clouds
9:17 AM29 °C24 °C74 %1012.9 hPa16.1 kmNE (50°)20.4 km/hMostly Cloudy
9:19 AM29 °C24 °C74 %1012.9 hPa16.1 kmENE (60°)22.2 km/hScattered Clouds
9:20 AM29 °C24 °C74 %1012.9 hPa16.1 kmENE (60°)20.4 km/hMostly Cloudy
9:55 AM29.2 °C23.8 °C72 %1012.9 hPa16.1 kmENE (70°)18.5 km/hMostly Cloudy
10:03 AM30 °C24 °C70 %1012.9 hPa16.1 kmENE (70°)22.2 km/hScattered Clouds
10:14 AM30 °C24 °C70 %1012.9 hPa16.1 kmENE (70°)20.4 km/hMostly Cloudy
10:23 AM30 °C24 °C70 %1012.9 hPa16.1 kmEast (80°)24.1 km/h31.5 km/hScattered Clouds
10:55 AM29.4 °C23.8 °C72 %1012.5 hPa16.1 kmENE (70°)22.2 km/hMostly Cloudy
10:57 AM29 °C24 °C74 %1012.5 hPa16.1 kmENE (60°)22.2 km/hScattered Clouds
11:21 AM29 °C24 °C74 %1012.2 hPa16.1 kmENE (70°)22.2 km/hMostly Cloudy
11:26 AM30 °C24 °C70 %1012.2 hPa16.1 kmNE (40°)22.2 km/h35.2 km/hScattered Clouds
11:55 AM30.1 °C24 °C70 %1011.9 hPa16.1 kmEast (80°)20.4 km/h31.5 km/hPartly Cloudy
12:55 PM30 °C23.5 °C68 %1011.2 hPa16.1 kmNE (50°)24.1 km/hMostly Cloudy
1:55 PM30 °C23.6 °C68 %1010.5 hPa16.1 kmEast (80°)24.1 km/hPartly Cloudy
2:55 PM29.1 °C23.8 °C73 %1010.2 hPa16.1 kmENE (60°)20.4 km/hScattered Clouds
3:55 PM29 °C23.9 °C74 %1010.2 hPa16.1 kmENE (60°)22.2 km/hPartly Cloudy
4:55 PM28.6 °C23.8 °C75 %1010.2 hPa16.1 kmENE (60°)22.2 km/hScattered Clouds
5:55 PM27.8 °C23.4 °C77 %1010.5 hPa16.1 kmENE (70°)20.4 km/hPartly Cloudy
6:55 PM26.8 °C23.2 °C81 %1011.2 hPa16.1 kmENE (60°)18.5 km/hPartly Cloudy
7:55 PM26.4 °C23.1 °C82 %1011.9 hPa16.1 kmENE (70°)16.7 km/hPartly Cloudy
8:46 PM27 °C24 °C84 %1012.5 hPa16.1 kmENE (60°)22.2 km/hMostly Cloudy
8:55 PM26.6 °C23.4 °C82 %1012.5 hPa16.1 kmENE (60°)20.4 km/hMostly Cloudy
9:00 PM27 °C24 °C84 %1012.5 hPa16.1 kmENE (60°)22.2 km/hScattered Clouds
9:16 PM27 °C24 °C84 %1012.5 hPa16.1 kmENE (60°)20.4 km/hRainLight Rain
9:22 PM26 °C24 °C89 %1012.9 hPa14.5 kmENE (70°)25.9 km/hRainLight Rain
9:25 PM26 °C24 °C89 %1012.9 hPa14.5 kmENE (70°)22.2 km/hRainLight Rain
9:28 PM26 °C24 °C89 %1012.9 hPa14.5 kmENE (70°)22.2 km/hLight Drizzle
9:32 PM26 °C24 °C89 %1012.9 hPa16.1 kmENE (60°)20.4 km/hMostly Cloudy
9:55 PM25.9 °C24 °C89 %1012.9 hPa16.1 kmENE (60°)16.7 km/h0 mmScattered Clouds
10:16 PM26 °C24 °C89 %1012.9 hPa16.1 kmENE (60°)18.5 km/hMostly Cloudy
10:19 PM26 °C24 °C89 %1012.9 hPa16.1 kmENE (60°)22.2 km/hScattered Clouds
10:26 PM26 °C24 °C89 %1012.9 hPa11.3 kmENE (70°)27.8 km/hRainLight Rain
10:27 PM26 °C24 °C89 %1012.9 hPa9.7 kmENE (70°)25.9 km/hRainRain
10:36 PM25 °C23 °C89 %1012.9 hPa12.9 kmENE (60°)20.4 km/hRainLight Rain
10:38 PM25 °C23 °C89 %1012.9 hPa16.1 kmENE (60°)18.5 km/hOvercast
10:55 PM25.8 °C24 °C90 %1012.9 hPa16.1 kmENE (60°)18.5 km/h0.25 mmMostly Cloudy
11:55 PM25.9 °C23.9 °C89 %1012.2 hPa16.1 kmENE (60°)22.2 km/hPartly Cloudy
Hourly data recorded from PGUA, located 0 kilometers away from Tamuning, Guam







STORIES FROM OUR PARTNERS